Muskegon, MI

7:25 PM EST on November 21, 2019 (GMT -0500)
Muskegon County

Weather History for KMKG - September, 2019

Change the Weather History Date:

Thursday, September 19, 2019

  Actual Average Record
Temperature  
Mean Temperature 69 °F 61 °F  
Max Temperature 79 °F 70 °F 93 °F (1932)
Min Temperature 58 °F 52 °F 36 °F (1979)
Degree Days  
Heating Degree Days 0 5  
Month to date heating degree days 20 61  
Since 1 July heating degree days 24 91  
Cooling Degree Days 4 1  
Month to date cooling degree days 57 46  
Year to date cooling degree days 602 553  
Growing Degree Days 18 (Base 50)    
Moisture  
Dew Point 55 °F    
Average Humidity 62    
Maximum Humidity 81    
Minimum Humidity 42    
Precipitation  
Precipitation 0.00 in 0.14 in 1.07 in (1988)
Month to date precipitation 3.59 2.43  
Year to date precipitation 30.72 23.01  
Snow  
Snow 0.00 in 0.00 in T in (1991)
Month to date snowfall 0.0 0.0  
Since 1 July snowfall 0.0 0.0  
Since 1 September snowfall 0.0 0.0  
Snow Depth 0.00 in    
Sea Level Pressure  
Sea Level Pressure 30.10 in    
Wind  
Wind Speed 5 mph (SSE)    
Max Wind Speed 12 mph    
Max Gust Speed 16 mph    
Visibility 10 miles    
Events      
T = Trace of Precipitation, MM = Missing Value Source: NWS Daily Summary

Daily Weather History Graph

Daily Weather History Graph

Search for Another Location

Airport or City:

Astronomy

Sep. 19, 2019 Rise Set
Actual Time 7:28 AM EDT 7:48 PM EDT
Civil Twilight 7:00 AM EDT 8:16 PM EDT
Nautical Twilight 6:26 AM EDT 8:49 PM EDT
Astronomical Twilight 5:52 AM EDT 9:24 PM EDT
Moon 10:48 PM EDT (9/19) 12:39 PM EDT (9/19)
Length of Visible Light 13h 16m
Length of Day
12h 19m
Waning Gibbous, 74% of the Moon is Illuminated
Sep 19
Waning Gibbous
Sep 21
Last Quarter
Sep 28
New
Oct 5
First Quarter
Oct 13
Full

Hourly Weather History & Observations

Time (EDT) Temp. Dew Point Humidity Pressure Visibility Wind Dir Wind Speed Gust Speed Precip Events Conditions
12:55 AM 66.0 °F 55.0 °F 68% 30.11 in 10.0 mi SE 6.9 mph - N/A   Clear
1:55 AM 63.0 °F 54.0 °F 72% 30.12 in 10.0 mi SE 6.9 mph - N/A   Clear
2:55 AM 62.1 °F 53.1 °F 72% 30.12 in 10.0 mi SE 8.1 mph - N/A   Clear
3:55 AM 62.1 °F 53.1 °F 72% 30.12 in 10.0 mi SE 6.9 mph - N/A   Clear
4:55 AM 60.1 °F 53.1 °F 78% 30.11 in 10.0 mi SE 5.8 mph - N/A   Clear
5:55 AM 60.1 °F 53.1 °F 78% 30.10 in 10.0 mi SE 6.9 mph - N/A   Partly Cloudy
6:55 AM 59.0 °F 53.1 °F 81% 30.09 in 10.0 mi SE 6.9 mph - N/A   Mostly Cloudy
7:55 AM 59.0 °F 53.1 °F 81% 30.12 in 10.0 mi East 3.5 mph - N/A   Scattered Clouds
8:55 AM 63.0 °F 54.0 °F 72% 30.12 in 10.0 mi ESE 5.8 mph - N/A   Mostly Cloudy
9:55 AM 69.1 °F 54.0 °F 58% 30.14 in 10.0 mi SE 6.9 mph - N/A   Mostly Cloudy
10:55 AM 73.9 °F 55.0 °F 52% 30.13 in 10.0 mi SSE 8.1 mph - N/A   Scattered Clouds
11:55 AM 78.1 °F 53.1 °F 42% 30.12 in 10.0 mi SSW 11.5 mph - N/A   Mostly Cloudy
12:55 PM 78.1 °F 53.1 °F 42% 30.12 in 10.0 mi SSW 9.2 mph - N/A   Mostly Cloudy
1:55 PM 77.0 °F 54.0 °F 45% 30.12 in 10.0 mi SSW 4.6 mph - N/A   Mostly Cloudy
2:55 PM 77.0 °F 55.0 °F 47% 30.10 in 10.0 mi SSW 5.8 mph - N/A   Mostly Cloudy
3:55 PM 75.0 °F 55.0 °F 50% 30.09 in 10.0 mi SSW 6.9 mph - N/A   Mostly Cloudy
4:55 PM 75.9 °F 55.0 °F 48% 30.07 in 10.0 mi SSE 4.6 mph - N/A   Mostly Cloudy
5:55 PM 78.1 °F 57.9 °F 50% 30.07 in 10.0 mi SSE 4.6 mph - N/A   Mostly Cloudy
6:55 PM 72.0 °F 57.9 °F 61% 30.08 in 10.0 mi WSW 3.5 mph - N/A   Mostly Cloudy
7:55 PM 71.1 °F 57.0 °F 61% 30.06 in 10.0 mi SE 3.5 mph - N/A   Overcast
8:55 PM 70.0 °F 59.0 °F 68% 30.06 in 10.0 mi ESE 4.6 mph - N/A   Mostly Cloudy
9:55 PM 69.1 °F 59.0 °F 70% 30.09 in 10.0 mi Calm Calm - N/A   Mostly Cloudy
10:55 PM 68.0 °F 59.0 °F 73% 30.09 in 10.0 mi Calm Calm - N/A   Mostly Cloudy
11:55 PM 68.0 °F 62.1 °F 81% 30.09 in 10.0 mi Calm Calm - N/A   Mostly Cloudy